Location: Dumbr?vi?a
(45.8833°N, 22.7000°E)
Time: 14:07:57
(UTC+00:00)

Meteor 1-19 Rocket - Pass Details

Date: 03 March 2021
Orbit: 807 x 928 km, 81.2° (Epoch: 11 April)

Event Time Altitude Azimuth Distance (km) Brightness Sun altitude
Rises 16:58:34 0° 350° (N) 3,568 7.6 -7.7°
Reaches altitude 10° 17:01:06 10° 354° (N) 2,610 6.8 -8.2°
Maximum altitude 17:07:02 67° 76° (ENE) 967 4.3 -9.2°
Drops below altitude 10° 17:12:46 10° 160° (SSE) 2,518 6.5 -10.2°
Sets 17:15:10 0° 163° (SSE) 3,433 7.2 -10.6°
